Location: Eexterzandvoort
(53.0303°N, 6.7884°E)
Time: 00:39:53
(UTC+00:00)

Okean 3 Rocket - Pass Details

Date: 19 May 2025
Orbit: 611 x 638 km, 82.5° (Epoch: 23 June)

Event Time Altitude Azimuth Distance (km) Brightness Sun altitude
Rises 21:50:08 0° 352° (N) 2,901 8.6 -13.9°
Reaches altitude 10° 21:52:25 10° 357° (N) 1,994 7.3 -14.0°
Maximum altitude 21:56:44 51° 74° (ENE) 790 4.0 -14.3°
Enters shadow 21:59:16 23° 141° (SE) 1,339 4.7 -14.4°
